{"data":{"norad_id":45027,"intl_designator":"2020-005B","name":"EUTELSAT KONNECT","alt_names":[],"object_type":"PAYLOAD","status":"ACTIVE","operator":null,"country":"EUTE","launch_date":"2020-01-16","launch_site_code":"FRGUI","launch_vehicle":null,"mission":null,"orbit_class":"UNKNOWN","rcs_meters":null,"size_class":null,"mass_kg":null,"dimensions":null,"purposes":["comms"],"wikipedia_slug":null,"has_3d_model":false,"image_url":null,"decayed_at":null,"tle_current":{"epoch":"2026-09-19T06:44:26.619360Z","epoch_age_seconds":127381,"freshness":"FRESH","line1":"1 45027U 20005B   26262.28086365  .00000046  00000+0  00000+0 0  9999","line2":"2 45027   0.0631  98.8541 0002014 104.8364 262.8225  1.00275166 25280","mean_motion":1.00275166,"eccentricity":0.0002014,"inclination_deg":0.0631,"raan_deg":98.8541,"arg_perigee_deg":104.8364,"mean_anomaly_deg":262.8225,"bstar":0,"rev_number":2528,"period_min":1436.0484828317,"perigee_km":35777.155384656,"apogee_km":35794.13895692,"semimajor_km":42163.784170788,"source":"CELESTRAK","updated_at":"2026-09-20T09:00:35.292581Z"}}}